Wind_Speed
25 26 26 27 27 28 29 30 31 32 33 34 35 35 35 35 36 37 38 39 39 39 40 40 40 41 42 43 44 45 45 46 46 47 48 48 48 48 48 49 49 50 50 49
26 26 27 28 28 29 30 31 32 33 34 35 36 36 36 36 37 37 37 38 39 39 39 40 41 41 42 43 43 45 46 46 46 47 48 49 50 49 49 49 50 51 51 51
28 28 28 29 29 30 31 31 32 33 34 36 37 37 37 37 38 38 37 38 39 40 40 40 41 41 42 43 43 44 45 46 46 47 48 49 50 50 50 49 49 50 50 50
29 29 29 30 30 31 31 31 32 34 35 36 38 39 37 38 38 38 39 39 40 40 40 41 41 42 43 44 45 45 46 46 46 47 48 48 49 49 49 50 49 49 50 50
30 30 31 31 32 32 32 32 33 34 36 38 38 40 39 38 38 38 39 40 41 41 41 42 43 43 43 44 45 46 47 47 47 48 48 48 48 48 49 49 50 50 50 50
31 32 32 33 33 34 34 35 35 36 37 38 37 39 40 39 39 39 40 40 41 42 42 43 44 44 44 45 45 46 47 47 47 48 48 49 49 48 49 50 50 50 51 51
33 33 33 34 35 35 35 36 37 37 38 38 37 38 40 41 40 40 40 41 41 42 43 44 44 44 45 45 45 46 46 47 47 48 48 49 50 50 50 50 50 50 51 51
34 35 35 35 35 36 35 35 35 36 37 37 37 38 39 40 40 40 40 41 41 42 43 44 44 44 44 45 45 46 46 46 46 47 48 49 49 50 50 50 50 50 51 52
35 36 36 35 35 35 35 35 35 36 37 38 37 38 38 39 40 40 41 41 41 42 42 43 43 44 44 45 45 45 45 46 46 46 47 47 48 48 49 49 50 50 51 51
36 37 36 36 36 35 35 35 35 35 38 39 39 39 40 39 39 40 40 41 42 42 42 42 42 43 44 44 44 44 44 45 46 47 47 47 47 47 48 49 49 50 51 51
37 37 36 36 35 35 34 34 35 36 37 39 40 40 40 40 40 40 41 42 42 42 42 42 42 42 43 44 44 44 43 44 45 46 47 47 47 47 48 48 49 49 50 50
36 37 37 36 35 35 35 35 36 37 38 39 41 42 41 41 41 41 41 42 42 42 42 42 43 43 43 43 43 43 43 43 44 45 46 47 47 48 48 48 49 49 49 49
37 37 38 37 36 35 35 36 36 38 39 40 41 42 42 42 42 42 42 42 42 42 42 42 42 42 42 41 41 42 42 43 43 44 46 47 47 48 47 47 48 48 48 48
37 37 37 37 37 36 36 36 37 38 39 40 41 41 42 42 43 42 42 42 43 42 42 41 41 41 40 41 41 41 41 41 42 43 45 46 46 46 46 46 46 46 47 47
37 37 37 36 36 36 37 37 38 39 40 41 41 41 41 42 43 43 43 42 42 42 42 41 41 42 41 41 40 40 40 40 41 42 43 43 43 44 44 44 44 44 45 45
38 38 37 37 37 37 38 38 39 39 40 41 41 41 41 42 43 43 43 42 42 42 42 42 42 42 42 41 40 39 39 40 40 40 41 40 40 41 41 42 42 42 43 43
38 38 38 38 38 39 39 39 39 40 40 41 41 41 41 42 43 43 42 42 43 42 42 41 41 41 40 40 39 39 39 38 38 37 37 37 37 37 38 39 40 41 41 41
38 38 39 39 40 40 40 39 40 40 39 40 40 41 41 42 42 43 43 43 42 42 41 40 39 39 39 39 38 38 37 36 35 35 35 35 35 34 35 35 36 37 38 39
38 39 40 41 42 42 40 40 40 40 38 39 40 40 41 42 42 42 42 42 42 41 40 39 39 38 38 37 36 36 35 34 34 33 33 33 33 33 33 34 34 35 36 36
39 40 41 42 43 43 41 41 40 40 39 39 39 40 41 42 41 41 41 41 40 39 39 38 37 37 36 35 34 34 33 33 32 32 32 32 32 32 32 32 33 33 33 34
40 41 41 42 42 41 41 40 40 39 40 39 39 40 40 41 41 40 40 40 39 38 37 36 36 35 35 34 33 32 31 31 31 31 31 31 32 32 32 32 32 32 32 32
41 41 41 41 41 40 40 39 39 39 39 39 39 39 40 40 40 39 39 38 37 36 35 35 35 34 34 34 33 32 30 30 31 31 31 31 31 31 31 31 31 31 30 31
41 40 40 40 39 39 39 38 39 39 39 38 39 39 39 39 38 38 38 37 36 35 35 34 34 34 34 33 33 32 31 30 30 31 31 31 31 30 30 30 30 30 29 29
40 39 39 39 38 38 38 39 39 39 38 38 39 39 39 39 38 37 36 36 35 34 34 34 35 34 34 34 33 32 31 31 30 30 30 30 30 30 30 30 30 30 29 28
39 38 38 38 38 38 38 38 38 38 38 38 38 38 38 38 37 36 35 35 35 35 35 35 34 34 34 33 32 31 31 30 30 29 29 29 30 29 30 30 29 29 29 28
37 38 38 37 37 38 37 37 38 38 38 37 37 36 36 36 36 35 36 36 36 35 35 34 34 33 33 32 31 30 29 28 29 29 29 29 29 29 29 29 29 29 28 27
Wind_Direction
301 301 301 301 300 296 294 292 292 292 292 292 292 291 287 283 282 280 280 279 277 274 273 273 271 270 269 268 266 265 265 266 265 264 263 263 263 262 261 260 259 258 257 256
302 302 303 303 302 299 296 294 294 293 293 293 293 293 290 286 282 281 281 280 278 275 273 273 273 272 270 269 268 266 266 266 265 264 264 264 264 263 261 261 260 259 257 257
303 305 305 304 304 302 299 296 295 294 294 294 295 293 292 288 285 283 282 281 279 277 275 274 274 274 272 270 270 268 267 266 265 265 264 263 263 263 262 261 260 259 258 256
304 305 305 305 306 306 302 298 296 296 296 296 296 295 294 291 288 286 284 283 282 280 278 276 274 274 274 272 271 269 267 267 267 266 264 263 263 263 263 261 260 258 257 257
305 306 306 307 308 307 304 300 299 299 298 297 297 295 295 294 290 288 287 285 284 283 280 278 276 275 275 273 272 269 268 267 267 266 264 264 263 263 262 261 261 259 258 258
305 306 307 309 309 307 305 302 300 300 299 298 299 297 297 297 294 291 290 288 286 285 283 281 278 276 275 273 272 271 269 268 267 266 265 264 263 262 262 261 261 260 259 259
306 307 307 308 308 307 305 304 303 302 302 303 303 300 299 299 298 295 293 290 288 286 285 282 280 277 275 274 272 271 270 268 267 266 265 265 263 262 262 261 261 260 259 259
307 308 309 309 308 308 307 306 305 304 304 304 304 302 303 301 300 297 295 293 290 289 286 284 281 278 276 274 273 272 270 268 268 267 266 265 264 263 263 262 261 260 260 260
307 308 309 310 309 308 308 308 306 304 303 302 304 304 302 303 302 300 297 294 292 291 289 287 283 280 277 275 274 272 270 269 269 268 267 266 265 264 264 263 262 260 260 260
306 306 308 308 307 307 307 307 307 305 305 303 304 304 304 305 303 301 298 296 294 291 290 288 285 282 279 277 275 273 272 270 269 269 268 267 266 265 265 264 263 262 262 262
306 306 307 307 307 306 306 306 306 305 304 304 303 304 306 303 301 300 299 297 295 293 290 288 287 284 281 279 277 274 273 271 270 269 269 268 267 266 266 266 265 264 262 262
305 306 306 306 306 305 304 305 304 304 305 304 303 304 306 303 301 300 298 297 296 295 292 291 290 287 284 280 278 276 274 273 272 270 269 268 268 268 268 266 265 263 262 261
306 306 307 307 306 305 304 303 302 302 303 303 303 304 306 304 301 300 298 297 296 297 295 293 292 291 287 283 279 277 275 274 273 272 270 269 269 268 267 266 264 263 263 262
304 305 306 305 305 304 302 302 301 301 302 303 304 304 304 302 300 300 300 298 297 297 297 295 293 291 289 286 283 280 278 276 274 274 273 271 270 268 267 266 264 263 263 262
303 304 305 304 303 302 301 301 301 301 302 302 304 303 304 303 302 300 300 299 299 298 297 296 294 292 290 289 286 283 281 278 276 275 274 273 271 269 267 265 263 263 263 262
303 303 304 303 303 301 301 301 301 302 302 303 303 303 304 303 302 302 301 301 300 300 298 296 295 293 291 289 287 285 284 281 278 277 275 274 272 271 268 266 263 262 262 262
303 302 303 303 303 303 303 304 303 302 302 302 303 304 304 304 304 303 303 301 300 300 299 297 296 294 291 289 287 286 285 283 280 278 276 275 273 271 269 267 265 263 262 262
302 301 302 303 303 303 306 305 304 304 303 302 303 304 305 305 305 304 303 302 301 301 299 298 298 296 293 290 287 286 285 283 281 278 276 276 275 273 271 269 268 265 263 262
302 302 302 304 304 305 306 306 305 305 304 303 304 304 305 305 305 304 303 303 303 302 301 300 299 298 295 292 289 287 284 283 281 279 277 276 276 275 274 272 270 268 265 264
302 302 303 304 304 306 307 307 306 304 304 304 304 305 307 307 306 306 304 304 304 303 302 302 301 300 297 295 292 287 284 282 281 279 278 277 276 276 275 273 272 270 268 266
302 302 303 304 304 305 307 307 306 305 306 305 304 306 307 308 308 308 307 305 304 304 303 302 302 301 298 296 294 290 286 282 281 279 279 278 277 276 274 273 272 272 269 267
301 302 303 304 304 305 306 305 305 305 304 304 306 307 308 309 309 308 307 306 305 304 303 303 302 301 300 297 294 291 287 284 281 279 279 278 278 276 274 273 272 272 270 267
300 301 301 303 304 303 304 304 304 305 305 305 306 306 308 309 309 309 308 307 305 305 304 304 303 302 302 300 296 291 288 286 282 280 279 278 277 277 275 273 272 272 270 268
299 300 300 302 303 303 303 303 304 305 305 305 305 306 308 309 309 309 309 308 307 306 305 303 303 303 302 301 298 293 290 286 284 281 279 278 276 275 274 272 271 271 270 269
299 299 300 301 303 303 304 303 303 304 305 306 305 306 307 308 309 309 309 308 307 306 306 304 303 303 303 301 299 296 293 290 287 284 280 279 278 276 275 273 271 269 267 266
299 298 300 301 302 302 303 303 303 304 305 306 306 306 307 307 308 308 308 308 308 307 306 305 303 302 302 301 300 298 296 293 289 286 283 280 279 277 276 274 271 268 265 263
Height
5752 5750 5746 5743 5739 5736 5734 5731 5729 5727 5724 5722 5720 5718 5716 5715 5713 5712 5711 5710 5709 5708 5708 5707 5707 5707 5706 5706 5707 5707 5708 5708 5708 5709 5709 5710 5710 5710 5711 5712 5714 5715 5717 5719
5747 5743 5740 5736 5732 5729 5726 5724 5721 5719 5716 5713 5711 5708 5707 5705 5703 5702 5701 5700 5698 5698 5697 5697 5696 5696 5695 5695 5695 5695 5695 5696 5696 5696 5696 5697 5697 5698 5698 5699 5700 5702 5704 5706
5740 5738 5734 5730 5726 5723 5719 5716 5713 5711 5708 5705 5702 5700 5698 5695 5693 5692 5691 5689 5688 5687 5686 5686 5685 5684 5683 5683 5683 5682 5682 5683 5683 5683 5683 5683 5684 5685 5685 5686 5687 5689 5690 5692
5734 5731 5728 5724 5720 5716 5712 5709 5705 5702 5699 5696 5694 5689 5689 5686 5684 5682 5681 5679 5677 5676 5675 5673 5672 5672 5671 5671 5670 5670 5670 5670 5669 5669 5670 5670 5671 5672 5672 5673 5674 5676 5677 5679
5728 5724 5721 5717 5713 5709 5704 5701 5698 5694 5690 5688 5685 5680 5679 5677 5674 5672 5670 5668 5666 5664 5663 5661 5660 5659 5659 5658 5657 5657 5656 5656 5656 5656 5656 5656 5657 5658 5659 5660 5661 5663 5664 5665
5721 5718 5714 5710 5706 5701 5697 5694 5690 5686 5682 5679 5677 5672 5668 5667 5664 5662 5660 5658 5655 5653 5651 5649 5648 5647 5646 5645 5644 5643 5643 5643 5642 5642 5642 5643 5643 5644 5645 5646 5648 5649 5650 5652
5714 5711 5707 5703 5699 5694 5690 5686 5681 5677 5673 5671 5668 5663 5660 5657 5654 5652 5649 5647 5644 5642 5639 5637 5635 5634 5633 5632 5631 5630 5630 5629 5629 5629 5629 5629 5629 5630 5631 5633 5634 5635 5636 5638
5706 5703 5700 5695 5691 5687 5682 5678 5674 5670 5665 5662 5660 5655 5653 5648 5645 5642 5639 5636 5633 5630 5628 5625 5623 5621 5619 5618 5617 5617 5616 5616 5616 5616 5615 5615 5616 5616 5617 5618 5620 5621 5622 5624
5699 5696 5692 5688 5683 5679 5674 5670 5666 5662 5657 5654 5652 5648 5644 5640 5636 5632 5629 5625 5622 5619 5616 5613 5611 5609 5607 5605 5604 5603 5603 5603 5603 5602 5602 5602 5602 5603 5604 5604 5605 5607 5608 5609
5691 5687 5685 5680 5676 5672 5668 5663 5659 5654 5649 5645 5643 5640 5635 5631 5627 5623 5618 5615 5612 5609 5605 5602 5599 5597 5594 5592 5591 5590 5590 5589 5589 5589 5589 5589 5589 5589 5590 5591 5591 5592 5593 5594
5683 5679 5676 5673 5668 5665 5661 5657 5651 5646 5642 5637 5632 5633 5627 5622 5617 5613 5609 5605 5601 5597 5594 5591 5588 5585 5582 5580 5579 5578 5577 5576 5576 5575 5575 5575 5575 5576 5576 5577 5577 5578 5579 5580
5675 5671 5667 5665 5661 5656 5652 5648 5644 5640 5635 5629 5624 5625 5618 5613 5608 5604 5599 5595 5591 5587 5583 5580 5576 5573 5571 5568 5566 5565 5564 5563 5562 5562 5562 5561 5561 5562 5562 5562 5562 5563 5564 5565
5667 5663 5659 5656 5654 5649 5644 5640 5636 5631 5626 5622 5616 5616 5609 5603 5598 5594 5590 5586 5581 5577 5573 5569 5565 5562 5559 5556 5554 5553 5551 5550 5549 5549 5548 5548 5547 5547 5547 5547 5548 5548 5550 5551
5659 5655 5652 5649 5644 5640 5636 5632 5627 5623 5618 5613 5609 5605 5600 5594 5589 5585 5580 5575 5571 5566 5562 5558 5554 5551 5547 5544 5542 5540 5539 5537 5536 5535 5534 5534 5533 5533 5533 5533 5533 5534 5535 5536
5651 5648 5644 5639 5635 5631 5627 5623 5619 5614 5609 5604 5601 5595 5590 5584 5579 5575 5570 5565 5560 5556 5551 5547 5543 5539 5536 5533 5530 5528 5526 5525 5523 5522 5521 5520 5519 5519 5519 5519 5520 5521 5521 5522
5642 5638 5635 5631 5627 5622 5618 5615 5610 5605 5600 5595 5590 5586 5581 5576 5570 5565 5560 5555 5550 5545 5540 5536 5532 5528 5524 5521 5518 5516 5514 5512 5511 5510 5508 5507 5507 5506 5506 5506 5506 5507 5508 5509
5633 5629 5625 5622 5618 5612 5609 5606 5601 5596 5591 5586 5581 5577 5571 5566 5560 5555 5550 5545 5540 5535 5530 5525 5521 5517 5513 5509 5507 5505 5503 5501 5499 5497 5496 5495 5495 5494 5494 5493 5494 5495 5496 5496
5625 5620 5615 5612 5608 5603 5602 5595 5591 5586 5582 5576 5571 5566 5561 5556 5550 5545 5540 5535 5529 5524 5519 5515 5510 5506 5502 5499 5496 5493 5491 5489 5488 5486 5485 5484 5484 5483 5483 5482 5482 5483 5484 5484
5616 5611 5606 5602 5597 5594 5591 5586 5581 5576 5572 5567 5562 5557 5551 5546 5541 5536 5530 5524 5519 5514 5509 5505 5500 5496 5492 5488 5485 5483 5481 5479 5478 5476 5475 5474 5473 5473 5472 5472 5472 5472 5473 5473
5607 5602 5598 5592 5586 5583 5582 5576 5570 5566 5562 5558 5552 5547 5542 5536 5532 5527 5520 5515 5509 5504 5500 5495 5490 5486 5482 5479 5476 5473 5471 5469 5468 5467 5466 5464 5464 5463 5462 5462 5462 5462 5462 5462
5598 5593 5589 5583 5577 5573 5571 5565 5561 5557 5554 5547 5542 5537 5532 5527 5522 5517 5511 5505 5500 5495 5491 5486 5482 5477 5473 5469 5466 5463 5461 5460 5459 5457 5456 5455 5454 5453 5453 5452 5452 5452 5452 5452
5587 5583 5579 5574 5569 5567 5561 5556 5552 5548 5542 5537 5532 5527 5523 5517 5512 5506 5501 5496 5491 5487 5482 5477 5473 5469 5464 5460 5457 5454 5452 5451 5449 5448 5447 5446 5445 5444 5443 5443 5442 5442 5442 5442
5578 5575 5569 5566 5563 5557 5552 5547 5543 5538 5533 5528 5524 5519 5514 5509 5503 5498 5493 5488 5483 5478 5474 5469 5465 5461 5457 5452 5449 5446 5443 5442 5440 5439 5438 5437 5436 5435 5434 5434 5433 5433 5433 5433
5569 5564 5560 5556 5553 5548 5543 5538 5533 5529 5524 5519 5514 5510 5505 5500 5494 5489 5484 5479 5475 5470 5466 5461 5457 5453 5449 5445 5441 5437 5435 5433 5432 5430 5429 5428 5427 5426 5425 5425 5424 5424 5424 5424
5559 5554 5550 5547 5543 5539 5534 5529 5525 5520 5515 5510 5506 5500 5495 5491 5486 5481 5476 5472 5467 5462 5457 5453 5448 5444 5441 5437 5433 5430 5427 5425 5423 5421 5420 5419 5418 5417 5416 5416 5416 5415 5416 5415
5549 5545 5541 5538 5534 5530 5526 5520 5516 5511 5507 5502 5497 5492 5487 5482 5478 5473 5468 5463 5458 5454 5449 5444 5440 5436 5432 5429 5425 5422 5419 5417 5415 5413 5412 5410 5409 5408 5407 5407 5407 5407 5407 5407